�������l�o���
Date,Time,MP-1(��Sv/h),MP-2(��Sv/h),MP-3(��Sv/h),MP-4(��Sv/h),MP-5(��Sv/h),MP-6(��Sv/h),MP-7(��Sv/h),MP-8(��Sv/h),����,����(m/s),���J
2023/07/09,00:00,0.540,0.820,0.499,0.992,0.727,0.329,0.574,0.537,�쐼,0.9,�L
2023/07/09,00:10,0.540,0.820,0.499,0.992,0.725,0.328,0.574,0.539,-,CALM,�L
2023/07/09,00:20,0.537,0.821,0.499,0.990,0.724,0.328,0.575,0.538,�k��,1.1,�L
2023/07/09,00:30,0.536,0.821,0.499,0.991,0.725,0.329,0.574,0.537,��,1.5,�L
2023/07/09,00:40,0.537,0.819,0.497,0.992,0.726,0.327,0.574,0.538,���k��,0.8,��
2023/07/09,00:50,0.536,0.818,0.495,0.990,0.724,0.328,0.574,0.537,-,CALM,��
2023/07/09,01:00,0.536,0.819,0.497,0.989,0.722,0.328,0.575,0.538,-,CALM,��
2023/07/09,01:10,0.534,0.819,0.496,0.991,0.725,0.328,0.576,0.537,-,CALM,��
2023/07/09,01:20,0.536,0.819,0.495,0.990,0.724,0.328,0.575,0.538,-,CALM,��
2023/07/09,01:30,0.538,0.821,0.495,0.991,0.724,0.328,0.574,0.538,�쐼,0.8,��
2023/07/09,01:40,0.537,0.818,0.494,0.989,0.722,0.328,0.576,0.538,��쐼,1.2,��
2023/07/09,01:50,0.536,0.817,0.496,0.990,0.723,0.327,0.575,0.537,��,1.2,��
2023/07/09,02:00,0.535,0.817,0.495,0.989,0.724,0.325,0.575,0.538,�쐼,0.9,��
2023/07/09,02:10,0.536,0.822,0.496,0.988,0.724,0.327,0.574,0.539,��,1.5,��
2023/07/09,02:20,0.535,0.819,0.494,0.989,0.724,0.326,0.573,0.537,��쓌,1.2,�L
2023/07/09,02:30,0.536,0.818,0.496,0.990,0.725,0.327,0.574,0.537,���쓌,1.7,�L
2023/07/09,02:40,0.536,0.820,0.494,0.988,0.722,0.326,0.574,0.537,�쓌,2.3,�L
2023/07/09,02:50,0.534,0.816,0.495,0.987,0.722,0.326,0.574,0.538,��쓌,2.6,�L
2023/07/09,03:00,0.535,0.816,0.495,0.989,0.724,0.326,0.574,0.538,��,3.2,�L
2023/07/09,03:10,0.534,0.816,0.496,0.991,0.722,0.325,0.575,0.536,��,4.4,��
2023/07/09,03:20,0.535,0.815,0.495,0.990,0.722,0.327,0.574,0.536,��,4.2,�L
2023/07/09,03:30,0.532,0.817,0.494,0.989,0.724,0.327,0.575,0.536,��,3.1,�L
2023/07/09,03:40,0.535,0.817,0.495,0.991,0.723,0.326,0.576,0.537,��,2.3,�L
2023/07/09,03:50,0.536,0.816,0.496,0.990,0.721,0.327,0.575,0.537,��,2.0,�L
2023/07/09,04:00,0.535,0.816,0.496,0.989,0.723,0.327,0.574,0.535,��,1.2,�L
2023/07/09,04:10,0.532,0.819,0.497,0.990,0.720,0.327,0.574,0.537,�쐼,1.2,�L
2023/07/09,04:20,0.533,0.817,0.495,0.989,0.721,0.327,0.575,0.538,�쐼,0.9,��
2023/07/09,04:30,0.534,0.818,0.495,0.988,0.721,0.327,0.576,0.537,-,CALM,��
2023/07/09,04:40,0.534,0.817,0.496,0.989,0.720,0.326,0.576,0.537,��쐼,0.9,��
2023/07/09,04:50,0.535,0.817,0.495,0.989,0.722,0.327,0.574,0.537,�k��,1.2,��
2023/07/09,05:00,0.534,0.820,0.494,0.987,0.722,0.328,0.575,0.536,�k�k��,0.6,��
2023/07/09,05:10,0.534,0.817,0.495,0.992,0.721,0.327,0.575,0.536,��,0.6,��
2023/07/09,05:20,0.536,0.817,0.494,0.991,0.721,0.326,0.574,0.537,��쓌,0.8,��
2023/07/09,05:30,0.534,0.816,0.495,0.989,0.722,0.326,0.575,0.537,-,CALM,��
2023/07/09,05:40,0.536,0.816,0.495,0.988,0.722,0.325,0.574,0.536,���k��,0.8,��
2023/07/09,05:50,0.535,0.814,0.495,0.989,0.722,0.326,0.574,0.537,-,CALM,��
2023/07/09,06:00,0.533,0.816,0.495,0.988,0.721,0.328,0.573,0.537,�k��,1.1,��
2023/07/09,06:10,0.536,0.815,0.495,0.987,0.723,0.327,0.574,0.537,�k�k��,0.9,��
2023/07/09,06:20,0.534,0.815,0.495,0.988,0.724,0.326,0.576,0.536,�k��,0.9,��
2023/07/09,06:30,0.534,0.819,0.494,0.988,0.721,0.327,0.573,0.535,�k��,0.9,��
2023/07/09,06:40,0.534,0.816,0.494,0.988,0.723,0.327,0.576,0.537,�k��,0.9,��
2023/07/09,06:50,0.533,0.815,0.495,0.988,0.722,0.328,0.575,0.534,-,CALM,��
2023/07/09,07:00,0.533,0.814,0.496,0.989,0.721,0.325,0.575,0.536,�k�k��,1.7,��
2023/07/09,07:10,0.533,0.814,0.496,0.989,0.722,0.327,0.575,0.535,�k��,1.2,��
2023/07/09,07:20,0.534,0.816,0.496,0.987,0.723,0.327,0.574,0.535,�k��,0.6,��
2023/07/09,07:30,0.534,0.816,0.495,0.988,0.721,0.326,0.574,0.535,-,CALM,��
2023/07/09,07:40,0.534,0.817,0.494,0.988,0.722,0.325,0.575,0.534,��쓌,0.9,��
2023/07/09,07:50,0.535,0.817,0.494,0.988,0.722,0.327,0.574,0.537,�쓌,1.7,��
2023/07/09,08:00,0.534,0.815,0.492,0.990,0.723,0.326,0.576,0.534,�쓌,2.0,��
2023/07/09,08:10,0.533,0.816,0.494,0.989,0.723,0.325,0.573,0.536,��쓌,2.3,��
2023/07/09,08:20,0.534,0.817,0.494,0.990,0.722,0.326,0.575,0.534,��쓌,2.6,��
2023/07/09,08:30,0.537,0.817,0.494,0.991,0.721,0.325,0.574,0.536,��쓌,3.7,��
2023/07/09,08:40,0.536,0.819,0.494,0.990,0.723,0.326,0.574,0.537,�쓌,3.2,��
2023/07/09,08:50,0.535,0.819,0.494,0.989,0.724,0.326,0.574,0.536,��쓌,3.5,��
2023/07/09,09:00,0.536,0.820,0.495,0.990,0.722,0.326,0.574,0.537,��쓌,2.9,��
2023/07/09,09:10,0.535,0.818,0.495,0.991,0.722,0.326,0.575,0.537,��쓌,3.6,��
2023/07/09,09:20,0.536,0.818,0.495,0.989,0.723,0.328,0.574,0.537,��쓌,4.1,��
2023/07/09,09:30,0.537,0.820,0.496,0.991,0.723,0.327,0.575,0.536,��쓌,4.6,��
2023/07/09,09:40,0.537,0.819,0.495,0.988,0.725,0.327,0.576,0.537,��쓌,4.0,��
2023/07/09,09:50,0.538,0.819,0.495,0.989,0.724,0.328,0.576,0.535,��쓌,2.6,��
2023/07/09,10:00,0.537,0.821,0.495,0.987,0.723,0.327,0.577,0.537,��쓌,1.5,��
2023/07/09,10:10,0.537,0.821,0.496,0.988,0.724,0.327,0.576,0.536,��쓌,2.0,��
2023/07/09,10:20,0.536,0.820,0.494,0.988,0.725,0.327,0.575,0.535,�쓌,1.5,��
2023/07/09,10:30,0.537,0.821,0.496,0.988,0.724,0.327,0.577,0.537,��쓌,1.7,��
2023/07/09,10:40,0.536,0.821,0.494,0.989,0.726,0.327,0.576,0.536,-,CALM,��
2023/07/09,10:50,0.537,0.819,0.496,0.990,0.725,0.327,0.575,0.537,��쓌,1.7,��
2023/07/09,11:00,0.538,0.820,0.496,0.991,0.724,0.327,0.576,0.536,��쓌,2.9,��
2023/07/09,11:10,0.537,0.819,0.496,0.990,0.726,0.327,0.577,0.536,��쓌,1.7,��
2023/07/09,11:20,0.537,0.823,0.498,0.991,0.726,0.328,0.575,0.537,��쓌,3.0,��
2023/07/09,11:30,0.537,0.823,0.498,0.990,0.726,0.326,0.577,0.537,��쓌,3.1,�L
2023/07/09,11:40,0.537,0.823,0.497,0.990,0.726,0.327,0.577,0.538,��쓌,1.5,��
2023/07/09,11:50,0.536,0.820,0.499,0.989,0.726,0.327,0.576,0.538,�쓌,1.7,��
2023/07/09,12:00,0.538,0.823,0.499,0.989,0.728,0.328,0.577,0.536,�쓌,2.6,��
2023/07/09,12:10,0.537,0.823,0.499,0.990,0.729,0.328,0.576,0.537,�쓌,3.6,��
2023/07/09,12:20,0.539,0.824,0.497,0.989,0.729,0.329,0.576,0.536,��쓌,4.7,��
2023/07/09,12:30,0.540,0.823,0.497,0.987,0.729,0.328,0.578,0.537,�쓌,2.6,��
2023/07/09,12:40,0.539,0.823,0.496,0.988,0.726,0.328,0.575,0.535,�쓌,2.0,��
2023/07/09,12:50,0.540,0.824,0.497,0.989,0.727,0.328,0.576,0.538,��쓌,2.8,��
2023/07/09,13:00,0.537,0.823,0.498,0.990,0.727,0.328,0.576,0.539,��쓌,2.2,��
2023/07/09,13:10,0.537,0.822,0.499,0.988,0.727,0.329,0.577,0.537,��쓌,2.0,��
2023/07/09,13:20,0.537,0.824,0.497,0.991,0.728,0.326,0.577,0.538,��쓌,3.1,��
2023/07/09,13:30,0.538,0.824,0.497,0.990,0.729,0.328,0.578,0.538,��쓌,3.5,��
2023/07/09,13:40,0.539,0.822,0.498,0.989,0.729,0.328,0.578,0.537,��쓌,3.9,��
2023/07/09,13:50,0.537,0.823,0.498,0.988,0.729,0.327,0.577,0.537,��쓌,3.7,��
2023/07/09,14:00,0.537,0.822,0.498,0.990,0.729,0.328,0.579,0.536,��,3.0,��
2023/07/09,14:10,0.540,0.824,0.499,0.991,0.729,0.328,0.578,0.537,��쓌,3.2,��
2023/07/09,14:20,0.540,0.825,0.500,0.989,0.730,0.328,0.577,0.537,��쓌,2.9,��
2023/07/09,14:30,0.540,0.825,0.500,0.992,0.728,0.329,0.577,0.537,��쓌,2.5,��
2023/07/09,14:40,0.540,0.823,0.499,0.991,0.729,0.328,0.577,0.536,��쓌,3.3,��
2023/07/09,14:50,0.541,0.824,0.501,0.991,0.729,0.328,0.577,0.536,��쓌,3.3,��
2023/07/09,15:00,0.540,0.823,0.500,0.993,0.729,0.327,0.578,0.537,��쓌,3.1,��
2023/07/09,15:10,0.541,0.827,0.501,0.993,0.728,0.328,0.578,0.536,��쓌,3.1,��
2023/07/09,15:20,0.541,0.827,0.500,0.993,0.731,0.327,0.577,0.536,��쓌,2.3,��
2023/07/09,15:30,0.541,0.826,0.501,0.993,0.729,0.327,0.579,0.539,��쐼,1.7,��
2023/07/09,15:40,0.541,0.824,0.500,0.992,0.731,0.327,0.577,0.538,�쐼,1.1,��
2023/07/09,15:50,0.540,0.825,0.500,0.995,0.729,0.329,0.579,0.539,�k��,1.1,��
2023/07/09,16:00,0.541,0.823,0.500,0.995,0.731,0.329,0.578,0.538,�k��,1.7,��
2023/07/09,16:10,0.540,0.823,0.499,0.995,0.729,0.329,0.576,0.538,�k�k��,1.4,��
2023/07/09,16:20,0.542,0.823,0.499,0.993,0.730,0.329,0.578,0.538,�k�k��,0.6,��
2023/07/09,16:30,0.541,0.828,0.499,0.994,0.730,0.329,0.577,0.536,�k�k��,1.7,��
2023/07/09,16:40,0.540,0.828,0.499,0.995,0.731,0.330,0.577,0.538,�k��,1.7,��
2023/07/09,16:50,0.541,0.825,0.500,0.993,0.729,0.329,0.578,0.538,�k��,2.0,��
2023/07/09,17:00,0.540,0.825,0.499,0.993,0.730,0.330,0.577,0.537,�k��,2.3,��
2023/07/09,17:10,0.541,0.825,0.501,0.994,0.730,0.329,0.578,0.538,�k�k��,1.5,��
2023/07/09,17:20,0.541,0.824,0.501,0.993,0.729,0.328,0.577,0.536,�k�k��,0.9,��
2023/07/09,17:30,0.541,0.823,0.499,0.994,0.729,0.328,0.577,0.538,�k�k��,1.5,��
2023/07/09,17:40,0.541,0.825,0.499,0.992,0.728,0.330,0.577,0.538,�k�k��,2.2,��
2023/07/09,17:50,0.540,0.822,0.497,0.993,0.728,0.329,0.577,0.538,�k,2.0,��
2023/07/09,18:00,0.540,0.824,0.498,0.994,0.727,0.326,0.577,0.538,�k,2.0,��
2023/07/09,18:10,0.540,0.826,0.498,0.993,0.730,0.328,0.577,0.537,�k,2.9,��
2023/07/09,18:20,0.541,0.823,0.499,0.992,0.729,0.329,0.578,0.538,�k�k��,3.5,��
2023/07/09,18:30,0.542,0.822,0.499,0.995,0.728,0.328,0.577,0.538,�k�k��,3.4,��
2023/07/09,18:40,0.540,0.825,0.501,0.995,0.729,0.328,0.577,0.538,�k�k��,3.1,��
2023/07/09,18:50,0.541,0.827,0.501,0.993,0.731,0.329,0.577,0.538,�k��,1.5,��
2023/07/09,19:00,0.540,0.827,0.499,0.995,0.728,0.329,0.578,0.538,�k�k��,3.7,��
2023/07/09,19:10,0.542,0.826,0.501,0.993,0.728,0.329,0.576,0.538,�k�k��,3.8,��
2023/07/09,19:20,0.541,0.824,0.500,0.994,0.729,0.331,0.577,0.539,�k�k��,4.3,��
2023/07/09,19:30,0.540,0.828,0.499,0.993,0.729,0.329,0.579,0.540,�k�k��,4.0,��
2023/07/09,19:40,0.540,0.826,0.499,0.995,0.728,0.330,0.578,0.538,�k�k��,3.3,��
2023/07/09,19:50,0.541,0.825,0.501,0.993,0.728,0.329,0.579,0.539,�k�k��,3.2,��
2023/07/09,20:00,0.543,0.825,0.500,0.994,0.731,0.330,0.579,0.539,�k�k��,2.2,��
2023/07/09,20:10,0.542,0.826,0.501,0.995,0.730,0.329,0.578,0.541,�k�k��,4.0,��
2023/07/09,20:20,0.541,0.823,0.501,0.995,0.729,0.329,0.578,0.538,�k��,4.0,��
2023/07/09,20:30,0.540,0.825,0.498,0.994,0.730,0.329,0.579,0.538,�k�k��,1.7,��
2023/07/09,20:40,0.540,0.824,0.500,0.995,0.730,0.329,0.578,0.539,��,0.6,��
2023/07/09,20:50,0.541,0.824,0.499,0.993,0.728,0.329,0.578,0.538,��쐼,1.7,�L
2023/07/09,21:00,0.541,0.825,0.500,0.995,0.729,0.330,0.577,0.539,���k��,1.9,��
2023/07/09,21:10,0.541,0.826,0.498,0.994,0.731,0.329,0.577,0.540,�k��,2.8,��
2023/07/09,21:20,0.540,0.826,0.499,0.993,0.729,0.327,0.578,0.539,�k��,4.2,��
2023/07/09,21:30,0.541,0.825,0.500,0.995,0.729,0.329,0.579,0.540,�k��,3.0,��
2023/07/09,21:40,0.541,0.824,0.500,0.994,0.729,0.328,0.577,0.541,���k��,3.0,��
2023/07/09,21:50,0.540,0.825,0.500,0.995,0.728,0.330,0.578,0.540,�k��,2.6,��
2023/07/09,22:00,0.540,0.825,0.498,0.995,0.729,0.330,0.580,0.539,�k��,1.9,��
2023/07/09,22:10,0.540,0.825,0.500,0.993,0.731,0.331,0.578,0.538,�k��,2.2,��
2023/07/09,22:20,0.540,0.823,0.498,0.995,0.729,0.330,0.578,0.539,���k��,2.2,��
2023/07/09,22:30,0.541,0.825,0.499,0.994,0.730,0.329,0.578,0.539,���k��,2.8,��
2023/07/09,22:40,0.541,0.826,0.499,0.994,0.731,0.331,0.578,0.540,���k��,2.8,��
2023/07/09,22:50,0.540,0.824,0.501,0.995,0.730,0.329,0.577,0.539,���k��,2.0,��
2023/07/09,23:00,0.541,0.825,0.500,0.996,0.729,0.329,0.577,0.540,���k��,2.6,��
2023/07/09,23:10,0.539,0.826,0.502,0.996,0.730,0.330,0.578,0.540,���k��,2.6,��
2023/07/09,23:20,0.541,0.826,0.499,0.994,0.730,0.331,0.578,0.539,��,2.3,�L
2023/07/09,23:30,0.540,0.826,0.501,0.993,0.732,0.330,0.578,0.540,��,1.9,�L
2023/07/09,23:40,0.541,0.823,0.500,0.994,0.728,0.331,0.578,0.539,��,2.0,�L
2023/07/09,23:50,0.540,0.824,0.500,0.993,0.730,0.331,0.577,0.539,���쐼,2.0,�L
